owner,sensor,date,latitude,longitude,vertical_datum,wind_speed,wind_to_direction,wind_speed_of_gust,qcFlag 
TCOON,ioos:station:TCOON:003:1,2014-05-01T00:00:00Z,26.8015,-97.4706,0.0,5.9,69.0,6.7,'1111122,1111122,1111122' 
TCOON,ioos:station:TCOON:003:1,2014-05-01T00:06:00Z,26.8015,-97.4706,0.0,6.1,71.0,7.2,'11111222,11111222,11111222' 
TCOON,ioos:station:TCOON:003:1,2014-05-01T00:12:00Z,26.8015,-97.4706,0.0,6.1,72.0,7.0,'11111222,11111222,11111222' 
TCOON,ioos:station:TCOON:003:1,2014-05-01T00:18:00Z,26.8015,-97.4706,0.0,6.3,73.0,7.2,'11111222,11111222,11111222' 
TCOON,ioos:station:TCOON:003:1,2014-05-01T00:24:00Z,26.8015,-97.4706,0.0,5.2,79.0,7.1,'11111222,11111222,11111222' 
TCOON,ioos:station:TCOON:003:1,2014-05-01T00:30:00Z,26.8015,-97.4706,0.0,5.7,80.0,6.7,'11111222,11111222,11111222' 
TCOON,ioos:station:TCOON:003:1,2014-05-01T00:36:00Z,26.8015,-97.4706,0.0,5.8,83.0,7.3,'11111222,11111222,11111222' 
TCOON,ioos:station:TCOON:003:1,2014-05-01T00:42:00Z,26.8015,-97.4706,0.0,4.7,75.0,7.2,'11111222,11111222,11111222' 
TCOON,ioos:station:TCOON:003:1,2014-05-01T00:48:00Z,26.8015,-97.4706,0.0,5.0,80.0,6.1,'11111222,11111222,11111222' 
TCOON,ioos:station:TCOON:003:1,2014-05-01T00:54:00Z,26.8015,-97.4706,0.0,6.1,79.0,7.0,'11111222,11111222,11111222' 
TCOON,ioos:station:TCOON:003:1,2014-05-01T01:00:00Z,26.8015,-97.4706,0.0,6.1,79.0,7.0,'1111122,1111122,1111122' 
TCOON,ioos:station:TCOON:003:1,2014-05-01T01:06:00Z,26.8015,-97.4706,0.0,6.0,81.0,7.1,'11111222,11111222,11111222' 
TCOON,ioos:station:TCOON:003:1,2014-05-01T01:12:00Z,26.8015,-97.4706,0.0,5.6,79.0,6.8,'11111222,11111222,11111222' 
TCOON,ioos:station:TCOON:003:1,2014-05-01T01:18:00Z,26.8015,-97.4706,0.0,5.6,87.0,6.6,'11111222,11111222,11111222' 
TCOON,ioos:station:TCOON:003:1,2014-05-01T01:24:00Z,26.8015,-97.4706,0.0,6.1,84.0,7.0,'11111222,11111222,11111222' 
TCOON,ioos:station:TCOON:003:1,2014-05-01T01:30:00Z,26.8015,-97.4706,0.0,4.9,88.0,6.8,'11111222,11111222,11111222' 
TCOON,ioos:station:TCOON:003:1,2014-05-01T01:36:00Z,26.8015,-97.4706,0.0,5.3,92.0,6.6,'11111222,11111222,11111222' 
TCOON,ioos:station:TCOON:003:1,2014-05-01T01:42:00Z,26.8015,-97.4706,0.0,5.4,87.0,6.3,'11111222,11111222,11111222' 
TCOON,ioos:station:TCOON:003:1,2014-05-01T01:48:00Z,26.8015,-97.4706,0.0,4.7,87.0,6.4,'11111222,11111222,11111222' 
TCOON,ioos:station:TCOON:003:1,2014-05-01T01:54:00Z,26.8015,-97.4706,0.0,4.7,85.0,6.2,'11111222,11111222,11111222' 
TCOON,ioos:station:TCOON:003:1,2014-05-01T02:00:00Z,26.8015,-97.4706,0.0,4.7,85.0,6.2,'1111122,1111122,1111122' 
TCOON,ioos:station:TCOON:003:1,2014-05-01T02:06:00Z,26.8015,-97.4706,0.0,4.7,87.0,5.6,'11111222,11111222,11111222' 
TCOON,ioos:station:TCOON:003:1,2014-05-01T02:12:00Z,26.8015,-97.4706,0.0,4.7,85.0,6.1,'11111222,11111222,11111222' 
TCOON,ioos:station:TCOON:003:1,2014-05-01T02:18:00Z,26.8015,-97.4706,0.0,4.8,85.0,6.5,'11111222,11111222,11111222' 
TCOON,ioos:station:TCOON:003:1,2014-05-01T02:24:00Z,26.8015,-97.4706,0.0,4.7,90.0,5.8,'11111222,11111222,11111222' 
TCOON,ioos:station:TCOON:003:1,2014-05-01T02:30:00Z,26.8015,-97.4706,0.0,4.2,88.0,5.6,'11111222,11111222,11111222' 
TCOON,ioos:station:TCOON:003:1,2014-05-01T02:36:00Z,26.8015,-97.4706,0.0,4.2,84.0,5.2,'11111222,11111222,11111222' 
TCOON,ioos:station:TCOON:003:1,2014-05-01T02:42:00Z,26.8015,-97.4706,0.0,4.0,90.0,5.0,'11111222,11111222,11111222' 
TCOON,ioos:station:TCOON:003:1,2014-05-01T02:48:00Z,26.8015,-97.4706,0.0,4.0,88.0,4.8,'11111222,11111222,11111222' 
TCOON,ioos:station:TCOON:003:1,2014-05-01T02:54:00Z,26.8015,-97.4706,0.0,4.0,87.0,5.0,'11111222,11111222,11111222' 
TCOON,ioos:station:TCOON:003:1,2014-05-01T03:00:00Z,26.8015,-97.4706,0.0,4.0,87.0,5.0,'1111122,1111122,1111122' 
TCOON,ioos:station:TCOON:003:1,2014-05-01T03:06:00Z,26.8015,-97.4706,0.0,3.3,88.0,4.2,'11111222,11111222,11111222' 
TCOON,ioos:station:TCOON:003:1,2014-05-01T03:12:00Z,26.8015,-97.4706,0.0,3.2,88.0,3.7,'11111222,11111222,11111222' 
TCOON,ioos:station:TCOON:003:1,2014-05-01T03:18:00Z,26.8015,-97.4706,0.0,3.2,93.0,3.9,'11111222,11111222,11111222' 
TCOON,ioos:station:TCOON:003:1,2014-05-01T03:24:00Z,26.8015,-97.4706,0.0,3.0,87.0,3.7,'11111222,11111222,11111222' 
TCOON,ioos:station:TCOON:003:1,2014-05-01T03:30:00Z,26.8015,-97.4706,0.0,3.2,83.0,3.9,'11111222,11111222,11111222' 
TCOON,ioos:station:TCOON:003:1,2014-05-01T03:36:00Z,26.8015,-97.4706,0.0,3.0,85.0,3.9,'11111222,11111222,11111222' 
TCOON,ioos:station:TCOON:003:1,2014-05-01T03:42:00Z,26.8015,-97.4706,0.0,2.7,86.0,3.4,'11111222,11111222,11111222' 
TCOON,ioos:station:TCOON:003:1,2014-05-01T03:48:00Z,26.8015,-97.4706,0.0,2.7,88.0,3.3,'11111222,11111222,11111222' 
TCOON,ioos:station:TCOON:003:1,2014-05-01T03:54:00Z,26.8015,-97.4706,0.0,2.4,78.0,3.2,'11111222,11111222,11111222' 
TCOON,ioos:station:TCOON:003:1,2014-05-01T04:00:00Z,26.8015,-97.4706,0.0,2.4,78.0,3.2,'1111122,1111122,1111122' 
TCOON,ioos:station:TCOON:003:1,2014-05-01T04:06:00Z,26.8015,-97.4706,0.0,2.9,81.0,3.5,'11111222,11111222,11111222' 
TCOON,ioos:station:TCOON:003:1,2014-05-01T04:12:00Z,26.8015,-97.4706,0.0,3.0,80.0,3.5,'11111222,11111222,11111222' 
TCOON,ioos:station:TCOON:003:1,2014-05-01T04:18:00Z,26.8015,-97.4706,0.0,2.8,77.0,3.2,'11111222,11111222,11111222' 
TCOON,ioos:station:TCOON:003:1,2014-05-01T04:24:00Z,26.8015,-97.4706,0.0,3.0,81.0,3.8,'11111222,11111222,11111222' 
TCOON,ioos:station:TCOON:003:1,2014-05-01T04:30:00Z,26.8015,-97.4706,0.0,3.2,76.0,3.6,'11111222,11111222,11111222' 
TCOON,ioos:station:TCOON:003:1,2014-05-01T04:36:00Z,26.8015,-97.4706,0.0,3.3,76.0,3.9,'11111222,11111222,11111222' 
TCOON,ioos:station:TCOON:003:1,2014-05-01T04:42:00Z,26.8015,-97.4706,0.0,3.0,72.0,3.8,'11111222,11111222,11111222' 
TCOON,ioos:station:TCOON:003:1,2014-05-01T04:48:00Z,26.8015,-97.4706,0.0,2.6,82.0,3.3,'11111222,11111222,11111222' 
TCOON,ioos:station:TCOON:003:1,2014-05-01T04:54:00Z,26.8015,-97.4706,0.0,2.7,75.0,3.2,'11111222,11111222,11111222' 
TCOON,ioos:station:TCOON:003:1,2014-05-01T05:00:00Z,26.8015,-97.4706,0.0,2.7,75.0,3.2,'1111122,1111122,1111122' 
TCOON,ioos:station:TCOON:003:1,2014-05-01T05:06:00Z,26.8015,-97.4706,0.0,3.0,66.0,3.5,'11111222,11111222,11111222' 
TCOON,ioos:station:TCOON:003:1,2014-05-01T05:12:00Z,26.8015,-97.4706,0.0,3.1,65.0,3.6,'11111222,11111222,11111222' 
TCOON,ioos:station:TCOON:003:1,2014-05-01T05:18:00Z,26.8015,-97.4706,0.0,2.8,69.0,3.7,'11111222,11111222,11111222' 
TCOON,ioos:station:TCOON:003:1,2014-05-01T05:24:00Z,26.8015,-97.4706,0.0,2.5,72.0,3.1,'11111222,11111222,11111222' 
TCOON,ioos:station:TCOON:003:1,2014-05-01T05:30:00Z,26.8015,-97.4706,0.0,2.4,76.0,3.0,'11111222,11111222,11111222' 
TCOON,ioos:station:TCOON:003:1,2014-05-01T05:36:00Z,26.8015,-97.4706,0.0,2.7,74.0,3.3,'11111222,11111222,11111222' 
TCOON,ioos:station:TCOON:003:1,2014-05-01T05:42:00Z,26.8015,-97.4706,0.0,3.0,73.0,3.6,'11111222,11111222,11111222' 
TCOON,ioos:station:TCOON:003:1,2014-05-01T05:48:00Z,26.8015,-97.4706,0.0,2.6,75.0,3.5,'11111222,11111222,11111222' 
TCOON,ioos:station:TCOON:003:1,2014-05-01T05:54:00Z,26.8015,-97.4706,0.0,2.4,72.0,2.7,'11111222,11111222,11111222' 
TCOON,ioos:station:TCOON:003:1,2014-05-01T06:00:00Z,26.8015,-97.4706,0.0,2.6,69.0,2.9,'11111222,11111222,11111222' 
TCOON,ioos:station:TCOON:003:1,2014-05-01T06:06:00Z,26.8015,-97.4706,0.0,2.4,73.0,3.0,'11111222,11111222,11111222' 
TCOON,ioos:station:TCOON:003:1,2014-05-01T06:12:00Z,26.8015,-97.4706,0.0,2.4,80.0,2.8,'11111222,11111222,11111222' 
TCOON,ioos:station:TCOON:003:1,2014-05-01T06:18:00Z,26.8015,-97.4706,0.0,2.4,78.0,2.7,'11111222,11111222,11111222' 
TCOON,ioos:station:TCOON:003:1,2014-05-01T06:24:00Z,26.8015,-97.4706,0.0,2.4,78.0,2.7,'1111122,1111122,1111122' 
TCOON,ioos:station:TCOON:003:1,2014-05-01T06:30:00Z,26.8015,-97.4706,0.0,2.3,84.0,2.8,'11111222,11111222,11111222' 
TCOON,ioos:station:TCOON:003:1,2014-05-01T06:36:00Z,26.8015,-97.4706,0.0,2.1,83.0,2.8,'11111222,11111222,11111222' 
TCOON,ioos:station:TCOON:003:1,2014-05-01T06:42:00Z,26.8015,-97.4706,0.0,2.1,77.0,2.6,'11111222,11111222,11111222' 
TCOON,ioos:station:TCOON:003:1,2014-05-01T06:48:00Z,26.8015,-97.4706,0.0,2.0,77.0,2.7,'11111222,11111222,11111222' 
TCOON,ioos:station:TCOON:003:1,2014-05-01T06:54:00Z,26.8015,-97.4706,0.0,2.2,80.0,2.5,'11111222,11111222,11111222' 
TCOON,ioos:station:TCOON:003:1,2014-05-01T07:00:00Z,26.8015,-97.4706,0.0,2.2,80.0,2.5,'1111122,1111122,1111122' 
TCOON,ioos:station:TCOON:003:1,2014-05-01T07:06:00Z,26.8015,-97.4706,0.0,2.0,80.0,2.5,'11111222,11111222,11111222' 
TCOON,ioos:station:TCOON:003:1,2014-05-01T07:12:00Z,26.8015,-97.4706,0.0,2.1,81.0,2.4,'11111222,11111222,11111222' 
TCOON,ioos:station:TCOON:003:1,2014-05-01T07:18:00Z,26.8015,-97.4706,0.0,2.2,76.0,2.5,'11111222,11111222,11111222' 
TCOON,ioos:station:TCOON:003:1,2014-05-01T07:24:00Z,26.8015,-97.4706,0.0,2.5,72.0,2.9,'11111222,11111222,11111222' 
TCOON,ioos:station:TCOON:003:1,2014-05-01T07:30:00Z,26.8015,-97.4706,0.0,2.3,79.0,2.9,'11111222,11111222,11111222' 
TCOON,ioos:station:TCOON:003:1,2014-05-01T07:36:00Z,26.8015,-97.4706,0.0,2.0,89.0,2.6,'11111222,11111222,11111222' 
TCOON,ioos:station:TCOON:003:1,2014-05-01T07:42:00Z,26.8015,-97.4706,0.0,1.8,86.0,2.2,'11111222,11111222,11111222' 
TCOON,ioos:station:TCOON:003:1,2014-05-01T07:48:00Z,26.8015,-97.4706,0.0,2.7,80.0,3.5,'11111222,11111222,11111222' 
TCOON,ioos:station:TCOON:003:1,2014-05-01T07:54:00Z,26.8015,-97.4706,0.0,2.4,71.0,2.8,'11111222,11111222,11111222' 
TCOON,ioos:station:TCOON:003:1,2014-05-01T08:00:00Z,26.8015,-97.4706,0.0,2.4,71.0,2.8,'1111122,1111122,1111122' 
TCOON,ioos:station:TCOON:003:1,2014-05-01T08:06:00Z,26.8015,-97.4706,0.0,3.3,60.0,3.8,'11111222,11111222,11111222' 
TCOON,ioos:station:TCOON:003:1,2014-05-01T08:12:00Z,26.8015,-97.4706,0.0,3.2,60.0,3.8,'11111222,11111222,11111222' 
TCOON,ioos:station:TCOON:003:1,2014-05-01T08:18:00Z,26.8015,-97.4706,0.0,2.7,68.0,3.8,'11111222,11111222,11111222' 
TCOON,ioos:station:TCOON:003:1,2014-05-01T08:24:00Z,26.8015,-97.4706,0.0,3.2,63.0,3.8,'11111222,11111222,11111222' 
TCOON,ioos:station:TCOON:003:1,2014-05-01T08:30:00Z,26.8015,-97.4706,0.0,3.4,59.0,3.9,'11111222,11111222,11111222' 
TCOON,ioos:station:TCOON:003:1,2014-05-01T08:36:00Z,26.8015,-97.4706,0.0,4.1,58.0,5.1,'11111222,11111222,11111222' 
TCOON,ioos:station:TCOON:003:1,2014-05-01T08:42:00Z,26.8015,-97.4706,0.0,4.1,56.0,4.5,'11111222,11111222,11111222' 
TCOON,ioos:station:TCOON:003:1,2014-05-01T08:48:00Z,26.8015,-97.4706,0.0,4.3,59.0,4.8,'11111222,11111222,11111222' 
TCOON,ioos:station:TCOON:003:1,2014-05-01T08:54:00Z,26.8015,-97.4706,0.0,4.3,57.0,5.1,'11111222,11111222,11111222' 
TCOON,ioos:station:TCOON:003:1,2014-05-01T09:00:00Z,26.8015,-97.4706,0.0,4.3,57.0,5.1,'1111122,1111122,1111122' 
TCOON,ioos:station:TCOON:003:1,2014-05-01T09:06:00Z,26.8015,-97.4706,0.0,3.8,62.0,4.9,'11111222,11111222,11111222' 
TCOON,ioos:station:TCOON:003:1,2014-05-01T09:12:00Z,26.8015,-97.4706,0.0,3.5,68.0,4.5,'11111222,11111222,11111222' 
TCOON,ioos:station:TCOON:003:1,2014-05-01T09:18:00Z,26.8015,-97.4706,0.0,3.2,75.0,3.8,'11111222,11111222,11111222' 
TCOON,ioos:station:TCOON:003:1,2014-05-01T09:24:00Z,26.8015,-97.4706,0.0,3.7,69.0,4.3,'11111222,11111222,11111222' 
TCOON,ioos:station:TCOON:003:1,2014-05-01T09:30:00Z,26.8015,-97.4706,0.0,3.9,66.0,4.7,'11111222,11111222,11111222' 
TCOON,ioos:station:TCOON:003:1,2014-05-01T09:36:00Z,26.8015,-97.4706,0.0,5.1,62.0,6.0,'11111222,11111222,11111222' 
TCOON,ioos:station:TCOON:003:1,2014-05-01T09:42:00Z,26.8015,-97.4706,0.0,5.2,55.0,6.2,'11111222,11111222,11111222' 
TCOON,ioos:station:TCOON:003:1,2014-05-01T09:48:00Z,26.8015,-97.4706,0.0,5.6,54.0,6.7,'11111222,11111222,11111222' 
TCOON,ioos:station:TCOON:003:1,2014-05-01T09:54:00Z,26.8015,-97.4706,0.0,5.2,55.0,6.7,'11111222,11111222,11111222' 
TCOON,ioos:station:TCOON:003:1,2014-05-01T10:00:00Z,26.8015,-97.4706,0.0,5.2,55.0,6.7,'1111122,1111122,1111122' 
TCOON,ioos:station:TCOON:003:1,2014-05-01T10:06:00Z,26.8015,-97.4706,0.0,5.9,57.0,7.2,'11111222,11111222,11111222' 
TCOON,ioos:station:TCOON:003:1,2014-05-01T10:12:00Z,26.8015,-97.4706,0.0,5.9,59.0,7.7,'11111222,11111222,11111222' 
TCOON,ioos:station:TCOON:003:1,2014-05-01T10:18:00Z,26.8015,-97.4706,0.0,5.4,61.0,6.6,'11111222,11111222,11111222' 
TCOON,ioos:station:TCOON:003:1,2014-05-01T10:24:00Z,26.8015,-97.4706,0.0,5.3,61.0,6.5,'11111222,11111222,11111222' 
TCOON,ioos:station:TCOON:003:1,2014-05-01T10:30:00Z,26.8015,-97.4706,0.0,5.7,61.0,6.5,'11111222,11111222,11111222' 
TCOON,ioos:station:TCOON:003:1,2014-05-01T10:36:00Z,26.8015,-97.4706,0.0,5.5,62.0,6.5,'11111222,11111222,11111222' 
TCOON,ioos:station:TCOON:003:1,2014-05-01T10:42:00Z,26.8015,-97.4706,0.0,6.2,58.0,7.0,'11111222,11111222,11111222' 
TCOON,ioos:station:TCOON:003:1,2014-05-01T10:48:00Z,26.8015,-97.4706,0.0,6.0,57.0,7.1,'11111222,11111222,11111222' 
TCOON,ioos:station:TCOON:003:1,2014-05-01T10:54:00Z,26.8015,-97.4706,0.0,6.3,57.0,7.9,'11111222,11111222,11111222' 
TCOON,ioos:station:TCOON:003:1,2014-05-01T11:00:00Z,26.8015,-97.4706,0.0,6.3,57.0,7.9,'1111122,1111122,1111122' 
TCOON,ioos:station:TCOON:003:1,2014-05-01T11:06:00Z,26.8015,-97.4706,0.0,6.4,58.0,7.4,'11111222,11111222,11111222' 
TCOON,ioos:station:TCOON:003:1,2014-05-01T11:12:00Z,26.8015,-97.4706,0.0,5.8,58.0,6.6,'11111222,11111222,11111222' 
TCOON,ioos:station:TCOON:003:1,2014-05-01T11:18:00Z,26.8015,-97.4706,0.0,6.7,56.0,8.1,'11111222,11111222,11111222' 
TCOON,ioos:station:TCOON:003:1,2014-05-01T11:24:00Z,26.8015,-97.4706,0.0,6.7,57.0,8.3,'11111222,11111222,11111222' 
TCOON,ioos:station:TCOON:003:1,2014-05-01T11:30:00Z,26.8015,-97.4706,0.0,5.7,52.0,8.0,'11111222,11111222,11111222' 
TCOON,ioos:station:TCOON:003:1,2014-05-01T11:36:00Z,26.8015,-97.4706,0.0,6.2,54.0,8.0,'11111222,11111222,11111222' 
TCOON,ioos:station:TCOON:003:1,2014-05-01T11:42:00Z,26.8015,-97.4706,0.0,7.0,57.0,8.1,'11111222,11111222,11111222' 
TCOON,ioos:station:TCOON:003:1,2014-05-01T11:48:00Z,26.8015,-97.4706,0.0,7.1,56.0,8.7,'11111222,11111222,11111222' 
TCOON,ioos:station:TCOON:003:1,2014-05-01T11:54:00Z,26.8015,-97.4706,0.0,5.8,49.0,7.3,'11111222,11111222,11111222' 
TCOON,ioos:station:TCOON:003:1,2014-05-01T12:00:00Z,26.8015,-97.4706,0.0,5.8,49.0,7.3,'1111122,1111122,1111122' 
TCOON,ioos:station:TCOON:003:1,2014-05-01T12:06:00Z,26.8015,-97.4706,0.0,6.9,57.0,7.9,'11111222,11111222,11111222' 
TCOON,ioos:station:TCOON:003:1,2014-05-01T12:12:00Z,26.8015,-97.4706,0.0,6.6,56.0,7.7,'11111222,11111222,11111222' 
TCOON,ioos:station:TCOON:003:1,2014-05-01T12:18:00Z,26.8015,-97.4706,0.0,6.7,55.0,7.8,'11111222,11111222,11111222' 
TCOON,ioos:station:TCOON:003:1,2014-05-01T12:24:00Z,26.8015,-97.4706,0.0,5.8,56.0,8.1,'11111222,11111222,11111222' 
TCOON,ioos:station:TCOON:003:1,2014-05-01T12:30:00Z,26.8015,-97.4706,0.0,6.7,60.0,8.3,'11111222,11111222,11111222' 
TCOON,ioos:station:TCOON:003:1,2014-05-01T12:36:00Z,26.8015,-97.4706,0.0,7.2,56.0,9.1,'11111222,11111222,11111222' 
TCOON,ioos:station:TCOON:003:1,2014-05-01T12:42:00Z,26.8015,-97.4706,0.0,7.2,53.0,8.6,'11111222,11111222,11111222' 
TCOON,ioos:station:TCOON:003:1,2014-05-01T12:48:00Z,26.8015,-97.4706,0.0,6.6,56.0,8.5,'11111222,11111222,11111222' 
TCOON,ioos:station:TCOON:003:1,2014-05-01T12:54:00Z,26.8015,-97.4706,0.0,7.4,53.0,8.5,'11111222,11111222,11111222' 
TCOON,ioos:station:TCOON:003:1,2014-05-01T13:00:00Z,26.8015,-97.4706,0.0,7.4,53.0,8.5,'1111122,1111122,1111122' 
TCOON,ioos:station:TCOON:003:1,2014-05-01T13:06:00Z,26.8015,-97.4706,0.0,7.5,52.0,8.8,'11111222,11111222,11111222' 
TCOON,ioos:station:TCOON:003:1,2014-05-01T13:12:00Z,26.8015,-97.4706,0.0,7.9,49.0,9.2,'11111222,11111222,11111222' 
TCOON,ioos:station:TCOON:003:1,2014-05-01T13:18:00Z,26.8015,-97.4706,0.0,7.9,55.0,9.5,'11111222,11111222,11111222' 
TCOON,ioos:station:TCOON:003:1,2014-05-01T13:24:00Z,26.8015,-97.4706,0.0,8.0,58.0,9.3,'11111222,11111222,11111222' 
TCOON,ioos:station:TCOON:003:1,2014-05-01T13:30:00Z,26.8015,-97.4706,0.0,8.3,50.0,9.6,'11111222,11111222,11111222' 
TCOON,ioos:station:TCOON:003:1,2014-05-01T13:36:00Z,26.8015,-97.4706,0.0,7.1,56.0,10.0,'11111222,11111222,11111222' 
TCOON,ioos:station:TCOON:003:1,2014-05-01T13:42:00Z,26.8015,-97.4706,0.0,6.9,54.0,9.6,'11111222,11111222,11111222' 
TCOON,ioos:station:TCOON:003:1,2014-05-01T13:48:00Z,26.8015,-97.4706,0.0,7.4,53.0,9.0,'11111222,11111222,11111222' 
TCOON,ioos:station:TCOON:003:1,2014-05-01T13:54:00Z,26.8015,-97.4706,0.0,7.8,57.0,9.3,'11111222,11111222,11111222' 
TCOON,ioos:station:TCOON:003:1,2014-05-01T14:00:00Z,26.8015,-97.4706,0.0,7.8,57.0,9.3,'1111122,1111122,1111122' 
TCOON,ioos:station:TCOON:003:1,2014-05-01T14:06:00Z,26.8015,-97.4706,0.0,7.5,53.0,9.9,'11111222,11111222,11111222' 
TCOON,ioos:station:TCOON:003:1,2014-05-01T14:12:00Z,26.8015,-97.4706,0.0,8.1,54.0,10.0,'11111222,11111222,11111222' 
TCOON,ioos:station:TCOON:003:1,2014-05-01T14:18:00Z,26.8015,-97.4706,0.0,7.2,56.0,9.6,'11111222,11111222,11111222' 
TCOON,ioos:station:TCOON:003:1,2014-05-01T14:24:00Z,26.8015,-97.4706,0.0,7.6,49.0,9.4,'11111222,11111222,11111222' 
TCOON,ioos:station:TCOON:003:1,2014-05-01T14:30:00Z,26.8015,-97.4706,0.0,8.1,55.0,9.3,'11111222,11111222,11111222' 
TCOON,ioos:station:TCOON:003:1,2014-05-01T14:36:00Z,26.8015,-97.4706,0.0,7.7,57.0,9.1,'11111222,11111222,11111222' 
TCOON,ioos:station:TCOON:003:1,2014-05-01T14:42:00Z,26.8015,-97.4706,0.0,8.6,61.0,10.2,'11111222,11111222,11111222' 
TCOON,ioos:station:TCOON:003:1,2014-05-01T14:48:00Z,26.8015,-97.4706,0.0,8.8,53.0,10.4,'11111222,11111222,11111222' 
TCOON,ioos:station:TCOON:003:1,2014-05-01T14:54:00Z,26.8015,-97.4706,0.0,8.0,53.0,9.7,'11111222,11111222,11111222' 
TCOON,ioos:station:TCOON:003:1,2014-05-01T15:00:00Z,26.8015,-97.4706,0.0,8.0,53.0,9.7,'1111122,1111122,1111122' 
TCOON,ioos:station:TCOON:003:1,2014-05-01T15:06:00Z,26.8015,-97.4706,0.0,7.6,53.0,9.8,'11111222,11111222,11111222' 
TCOON,ioos:station:TCOON:003:1,2014-05-01T15:12:00Z,26.8015,-97.4706,0.0,7.3,56.0,9.5,'11111222,11111222,11111222' 
TCOON,ioos:station:TCOON:003:1,2014-05-01T15:18:00Z,26.8015,-97.4706,0.0,7.7,42.0,9.3,'11111222,11111222,11111222' 
TCOON,ioos:station:TCOON:003:1,2014-05-01T15:24:00Z,26.8015,-97.4706,0.0,7.3,48.0,9.2,'11111222,11111222,11111222' 
TCOON,ioos:station:TCOON:003:1,2014-05-01T15:30:00Z,26.8015,-97.4706,0.0,7.9,49.0,9.7,'11111222,11111222,11111222' 
TCOON,ioos:station:TCOON:003:1,2014-05-01T15:36:00Z,26.8015,-97.4706,0.0,6.4,52.0,8.8,'11111222,11111222,11111222' 
TCOON,ioos:station:TCOON:003:1,2014-05-01T15:42:00Z,26.8015,-97.4706,0.0,7.6,49.0,9.4,'11111222,11111222,11111222' 
TCOON,ioos:station:TCOON:003:1,2014-05-01T15:48:00Z,26.8015,-97.4706,0.0,7.7,51.0,9.3,'11111222,11111222,11111222' 
TCOON,ioos:station:TCOON:003:1,2014-05-01T15:54:00Z,26.8015,-97.4706,0.0,7.8,57.0,9.3,'11111222,11111222,11111222' 
TCOON,ioos:station:TCOON:003:1,2014-05-01T16:00:00Z,26.8015,-97.4706,0.0,7.8,57.0,9.3,'1111122,1111122,1111122' 
TCOON,ioos:station:TCOON:003:1,2014-05-01T16:06:00Z,26.8015,-97.4706,0.0,7.6,60.0,8.8,'11111222,11111222,11111222' 
TCOON,ioos:station:TCOON:003:1,2014-05-01T16:12:00Z,26.8015,-97.4706,0.0,6.4,59.0,9.3,'11111222,11111222,11111222' 
TCOON,ioos:station:TCOON:003:1,2014-05-01T16:18:00Z,26.8015,-97.4706,0.0,6.9,56.0,10.0,'11111222,11111222,11111222' 
TCOON,ioos:station:TCOON:003:1,2014-05-01T16:24:00Z,26.8015,-97.4706,0.0,6.9,65.0,8.3,'11111222,11111222,11111222' 
TCOON,ioos:station:TCOON:003:1,2014-05-01T16:30:00Z,26.8015,-97.4706,0.0,7.1,51.0,8.8,'11111222,11111222,11111222' 
TCOON,ioos:station:TCOON:003:1,2014-05-01T16:36:00Z,26.8015,-97.4706,0.0,6.6,58.0,8.6,'11111222,11111222,11111222' 
TCOON,ioos:station:TCOON:003:1,2014-05-01T16:42:00Z,26.8015,-97.4706,0.0,7.6,62.0,9.6,'11111222,11111222,11111222' 
TCOON,ioos:station:TCOON:003:1,2014-05-01T16:48:00Z,26.8015,-97.4706,0.0,7.3,46.0,9.0,'11111222,11111222,11111222' 
TCOON,ioos:station:TCOON:003:1,2014-05-01T16:54:00Z,26.8015,-97.4706,0.0,7.6,51.0,9.5,'11111222,11111222,11111222' 
TCOON,ioos:station:TCOON:003:1,2014-05-01T17:00:00Z,26.8015,-97.4706,0.0,7.6,51.0,9.5,'1111122,1111122,1111122' 
TCOON,ioos:station:TCOON:003:1,2014-05-01T17:06:00Z,26.8015,-97.4706,0.0,7.3,49.0,9.2,'11111222,11111222,11111222' 
TCOON,ioos:station:TCOON:003:1,2014-05-01T17:12:00Z,26.8015,-97.4706,0.0,7.2,51.0,9.1,'11111222,11111222,11111222' 
TCOON,ioos:station:TCOON:003:1,2014-05-01T17:18:00Z,26.8015,-97.4706,0.0,6.6,57.0,8.5,'11111222,11111222,11111222' 
TCOON,ioos:station:TCOON:003:1,2014-05-01T17:24:00Z,26.8015,-97.4706,0.0,7.0,49.0,8.5,'11111222,11111222,11111222' 
TCOON,ioos:station:TCOON:003:1,2014-05-01T17:30:00Z,26.8015,-97.4706,0.0,6.3,55.0,9.0,'11111222,11111222,11111222' 
TCOON,ioos:station:TCOON:003:1,2014-05-01T17:36:00Z,26.8015,-97.4706,0.0,6.1,57.0,8.4,'11111222,11111222,11111222' 
TCOON,ioos:station:TCOON:003:1,2014-05-01T17:42:00Z,26.8015,-97.4706,0.0,5.7,54.0,7.6,'11111222,11111222,11111222' 
TCOON,ioos:station:TCOON:003:1,2014-05-01T17:48:00Z,26.8015,-97.4706,0.0,6.1,54.0,8.9,'11111222,11111222,11111222' 
TCOON,ioos:station:TCOON:003:1,2014-05-01T17:54:00Z,26.8015,-97.4706,0.0,6.0,57.0,8.9,'11111222,11111222,11111222' 
TCOON,ioos:station:TCOON:003:1,2014-05-01T18:00:00Z,26.8015,-97.4706,0.0,6.0,57.0,8.9,'1111122,1111122,1111122' 
TCOON,ioos:station:TCOON:003:1,2014-05-01T18:06:00Z,26.8015,-97.4706,0.0,6.2,71.0,8.2,'11111222,11111222,11111222' 
TCOON,ioos:station:TCOON:003:1,2014-05-01T18:12:00Z,26.8015,-97.4706,0.0,7.6,46.0,8.6,'11111222,11111222,11111222' 
TCOON,ioos:station:TCOON:003:1,2014-05-01T18:18:00Z,26.8015,-97.4706,0.0,7.4,53.0,10.0,'11111222,11111222,11111222' 
TCOON,ioos:station:TCOON:003:1,2014-05-01T18:24:00Z,26.8015,-97.4706,0.0,6.3,43.0,9.3,'11111222,11111222,11111222' 
TCOON,ioos:station:TCOON:003:1,2014-05-01T18:30:00Z,26.8015,-97.4706,0.0,5.4,49.0,8.6,'11111222,11111222,11111222' 
TCOON,ioos:station:TCOON:003:1,2014-05-01T18:36:00Z,26.8015,-97.4706,0.0,7.2,67.0,9.2,'11111222,11111222,11111222' 
TCOON,ioos:station:TCOON:003:1,2014-05-01T18:42:00Z,26.8015,-97.4706,0.0,7.5,64.0,9.4,'11111222,11111222,11111222' 
TCOON,ioos:station:TCOON:003:1,2014-05-01T18:48:00Z,26.8015,-97.4706,0.0,5.4,64.0,9.3,'11111222,11111222,11111222' 
TCOON,ioos:station:TCOON:003:1,2014-05-01T18:54:00Z,26.8015,-97.4706,0.0,6.2,63.0,8.2,'11111222,11111222,11111222' 
TCOON,ioos:station:TCOON:003:1,2014-05-01T19:00:00Z,26.8015,-97.4706,0.0,6.2,63.0,8.2,'1111122,1111122,1111122' 
TCOON,ioos:station:TCOON:003:1,2014-05-01T19:06:00Z,26.8015,-97.4706,0.0,5.0,59.0,7.6,'11111222,11111222,11111222' 
TCOON,ioos:station:TCOON:003:1,2014-05-01T19:12:00Z,26.8015,-97.4706,0.0,6.5,58.0,8.9,'11111222,11111222,11111222' 
TCOON,ioos:station:TCOON:003:1,2014-05-01T19:18:00Z,26.8015,-97.4706,0.0,8.3,58.0,9.9,'11111222,11111222,11111222' 
TCOON,ioos:station:TCOON:003:1,2014-05-01T19:24:00Z,26.8015,-97.4706,0.0,7.1,62.0,8.6,'11111222,11111222,11111222' 
TCOON,ioos:station:TCOON:003:1,2014-05-01T19:30:00Z,26.8015,-97.4706,0.0,6.3,56.0,8.8,'11111222,11111222,11111222' 
TCOON,ioos:station:TCOON:003:1,2014-05-01T19:36:00Z,26.8015,-97.4706,0.0,5.3,50.0,7.9,'11111222,11111222,11111222' 
TCOON,ioos:station:TCOON:003:1,2014-05-01T19:42:00Z,26.8015,-97.4706,0.0,5.8,53.0,8.5,'11111222,11111222,11111222' 
TCOON,ioos:station:TCOON:003:1,2014-05-01T19:48:00Z,26.8015,-97.4706,0.0,6.8,56.0,8.6,'11111222,11111222,11111222' 
TCOON,ioos:station:TCOON:003:1,2014-05-01T19:54:00Z,26.8015,-97.4706,0.0,7.1,65.0,9.1,'11111222,11111222,11111222' 
TCOON,ioos:station:TCOON:003:1,2014-05-01T20:00:00Z,26.8015,-97.4706,0.0,7.1,65.0,9.1,'1111122,1111122,1111122' 
TCOON,ioos:station:TCOON:003:1,2014-05-01T20:06:00Z,26.8015,-97.4706,0.0,6.4,67.0,8.5,'11111222,11111222,11111222' 
TCOON,ioos:station:TCOON:003:1,2014-05-01T20:12:00Z,26.8015,-97.4706,0.0,7.4,64.0,8.6,'11111222,11111222,11111222' 
TCOON,ioos:station:TCOON:003:1,2014-05-01T20:18:00Z,26.8015,-97.4706,0.0,5.9,46.0,8.0,'11111222,11111222,11111222' 
TCOON,ioos:station:TCOON:003:1,2014-05-01T20:24:00Z,26.8015,-97.4706,0.0,4.7,57.0,8.9,'11111222,11111222,11111222' 
TCOON,ioos:station:TCOON:003:1,2014-05-01T20:30:00Z,26.8015,-97.4706,0.0,6.0,49.0,9.0,'11111222,11111222,11111222' 